Location: Borotín
(49.5055°N, 14.6142°E)
Time: 10:51:55
(UTC+00:00)

CZ-4 R/B - Pass Details

Date: 27 May 2022
Orbit: 680 x 752 km, 98.5° (Epoch: 26 June)

Event Time Altitude Azimuth Distance (km) Brightness Sun altitude
Rises 01:03:10 0° 12° (NNE) 3,065 8.7 -14.0°
Reaches altitude 10° 01:05:25 10° 11° (N) 2,140 7.5 -13.8°
Maximum altitude 01:10:04 70° 288° (WNW) 727 3.8 -13.4°
Enters shadow 01:13:15 20° 208° (SSW) 1,564 5.0 -13.2°
